TimeCST,TemperatureF,Dew PointF,Humidity,Sea Level PressureIn,VisibilityMPH,Wind Direction,Wind SpeedMPH,Gust SpeedMPH,PrecipitationIn,Events,Conditions,WindDirDegrees,DateUTC
12:15 AM,27.1,24.3,89,30.13,10.0,North,18.4,31.1,N/A,,Overcast,350,2013-02-28 06:15:00
12:55 AM,27.0,23.9,88,30.13,10.0,NNW,19.6,25.3,N/A,,Overcast,340,2013-02-28 06:55:00
1:15 AM,26.6,23.5,88,30.13,10.0,NNW,13.8,19.6,N/A,,Overcast,340,2013-02-28 07:15:00
1:35 AM,26.8,23.9,89,30.14,10.0,NNW,15.0,20.7,N/A,,Overcast,340,2013-02-28 07:35:00
1:55 AM,26.6,23.9,90,30.14,10.0,NNW,13.8,17.3,N/A,,Overcast,340,2013-02-28 07:55:00
2:15 AM,26.6,23.5,88,30.14,10.0,NNW,13.8,17.3,N/A,,Overcast,340,2013-02-28 08:15:00
2:35 AM,26.6,23.4,88,30.14,10.0,NNW,13.8,-,N/A,,Overcast,340,2013-02-28 08:35:00
2:55 AM,26.6,23.4,88,30.13,10.0,NNW,15.0,23.0,N/A,,Overcast,330,2013-02-28 08:55:00
3:15 AM,26.4,23.5,89,30.13,10.0,NNW,19.6,23.0,N/A,,Overcast,330,2013-02-28 09:15:00
3:55 AM,26.4,23.5,89,30.13,10.0,NNW,18.4,-,N/A,,Overcast,340,2013-02-28 09:55:00
4:35 AM,26.1,23.4,90,30.15,10.0,North,11.5,-,N/A,,Overcast,350,2013-02-28 10:35:00
4:55 AM,25.7,22.8,89,30.15,10.0,North,20.7,-,N/A,,Overcast,350,2013-02-28 10:55:00
5:15 AM,25.3,22.5,89,30.15,10.0,NNW,15.0,25.3,N/A,,Overcast,340,2013-02-28 11:15:00
5:35 AM,25.3,22.1,87,30.16,10.0,North,18.4,25.3,N/A,,Overcast,350,2013-02-28 11:35:00
5:55 AM,25.2,22.5,89,30.16,10.0,North,19.6,25.3,N/A,,Overcast,350,2013-02-28 11:55:00
6:15 AM,25.2,22.5,89,30.17,10.0,NNW,15.0,23.0,N/A,,Overcast,340,2013-02-28 12:15:00
6:35 AM,24.8,22.5,91,30.17,10.0,NNW,17.3,24.2,N/A,,Overcast,340,2013-02-28 12:35:00
6:55 AM,24.8,22.1,89,30.17,10.0,North,12.7,21.9,N/A,,Overcast,350,2013-02-28 12:55:00
7:15 AM,24.8,22.3,90,30.18,10.0,NNW,10.4,19.6,N/A,,Overcast,340,2013-02-28 13:15:00
7:35 AM,24.8,22.5,91,30.19,10.0,NNW,16.1,-,N/A,,Overcast,340,2013-02-28 13:35:00
8:15 AM,24.8,22.3,90,30.19,10.0,North,13.8,-,N/A,,Overcast,350,2013-02-28 14:15:00
8:35 AM,24.8,22.5,91,30.19,10.0,NNW,15.0,19.6,N/A,,Overcast,340,2013-02-28 14:35:00
8:55 AM,24.8,22.5,91,30.20,10.0,North,15.0,-,N/A,,Overcast,350,2013-02-28 14:55:00
9:15 AM,24.8,22.1,89,30.21,10.0,NNW,15.0,18.4,N/A,,Overcast,340,2013-02-28 15:15:00
9:55 AM,24.8,22.1,89,30.22,5.0,NNW,13.8,18.4,N/A,,Overcast,330,2013-02-28 15:55:00
10:15 AM,24.8,22.1,89,30.22,7.0,NNW,13.8,19.6,N/A,,Overcast,330,2013-02-28 16:15:00
10:35 AM,24.8,21.7,88,30.23,10.0,NNW,17.3,21.9,N/A,,Overcast,330,2013-02-28 16:35:00
10:55 AM,24.8,21.6,87,30.23,10.0,NNW,17.3,21.9,N/A,,Overcast,330,2013-02-28 16:55:00
11:15 AM,25.2,21.9,87,30.23,10.0,NNW,12.7,18.4,N/A,,Overcast,330,2013-02-28 17:15:00
11:55 AM,25.3,21.7,86,30.23,10.0,NNW,16.1,-,N/A,,Overcast,340,2013-02-28 17:55:00
12:15 PM,26.1,22.3,86,30.22,10.0,NNW,17.3,-,N/A,,Overcast,330,2013-02-28 18:15:00
12:35 PM,26.2,22.1,84,30.22,10.0,NW,16.1,-,N/A,,Overcast,320,2013-02-28 18:35:00
12:55 PM,25.7,21.6,84,30.22,10.0,NNW,16.1,23.0,N/A,,Overcast,340,2013-02-28 18:55:00
1:15 PM,25.9,21.4,83,30.22,10.0,NNW,21.9,25.3,N/A,,Overcast,330,2013-02-28 19:15:00
1:35 PM,25.5,21.4,84,30.21,10.0,NNW,16.1,-,N/A,,Overcast,340,2013-02-28 19:35:00
1:55 PM,25.7,21.6,84,30.20,10.0,NNW,16.1,24.2,N/A,,Overcast,340,2013-02-28 19:55:00
2:15 PM,25.7,21.4,84,30.20,10.0,NNW,16.1,-,N/A,,Overcast,330,2013-02-28 20:15:00
2:35 PM,25.7,21.6,84,30.20,10.0,NNW,15.0,-,N/A,,Overcast,340,2013-02-28 20:35:00
2:55 PM,25.7,21.2,83,30.20,10.0,NNW,16.1,21.9,N/A,,Overcast,340,2013-02-28 20:55:00
3:35 PM,25.7,21.2,83,30.20,10.0,NNW,12.7,-,N/A,,Overcast,340,2013-02-28 21:35:00
3:55 PM,25.7,21.0,82,30.20,10.0,North,16.1,20.7,N/A,,Overcast,350,2013-02-28 21:55:00
4:15 PM,25.7,20.8,82,30.20,10.0,North,16.1,20.7,N/A,,Overcast,350,2013-02-28 22:15:00
4:35 PM,25.7,20.7,81,30.21,10.0,North,13.8,-,N/A,,Overcast,350,2013-02-28 22:35:00
4:55 PM,25.7,20.8,82,30.20,10.0,NNW,13.8,-,N/A,,Overcast,340,2013-02-28 22:55:00
5:15 PM,25.7,21.2,83,30.20,10.0,NNW,15.0,18.4,N/A,,Overcast,340,2013-02-28 23:15:00
5:35 PM,25.7,20.8,82,30.21,10.0,North,12.7,17.3,N/A,,Overcast,350,2013-02-28 23:35:00
6:15 PM,25.5,20.3,81,30.22,10.0,NNW,16.1,-,N/A,,Overcast,340,2013-03-01 00:15:00
6:35 PM,25.3,20.1,81,30.22,10.0,NNW,13.8,21.9,N/A,,Overcast,340,2013-03-01 00:35:00
6:55 PM,25.2,20.1,81,30.23,10.0,North,13.8,-,N/A,,Overcast,350,2013-03-01 00:55:00
7:15 PM,25.2,20.3,82,30.23,10.0,North,9.2,-,N/A,,Overcast,350,2013-03-01 01:15:00
7:35 PM,25.2,20.3,82,30.24,10.0,North,9.2,17.3,N/A,,Overcast,350,2013-03-01 01:35:00
7:55 PM,24.8,20.1,82,30.24,10.0,North,10.4,-,N/A,,Overcast,350,2013-03-01 01:55:00
8:15 PM,24.8,20.1,82,30.24,10.0,North,9.2,-,N/A,,Overcast,350,2013-03-01 02:15:00
8:35 PM,24.8,19.9,82,30.24,10.0,North,11.5,-,N/A,,Overcast,350,2013-03-01 02:35:00
8:55 PM,24.6,19.6,81,30.24,10.0,North,11.5,17.3,N/A,,Overcast,360,2013-03-01 02:55:00
9:15 PM,24.4,19.8,82,30.24,10.0,North,9.2,-,N/A,,Overcast,350,2013-03-01 03:15:00
9:35 PM,24.4,19.4,81,30.24,10.0,North,8.1,-,N/A,,Overcast,350,2013-03-01 03:35:00
9:55 PM,24.6,19.2,80,30.24,10.0,North,9.2,-,N/A,,Overcast,350,2013-03-01 03:55:00
10:15 PM,24.6,19.4,81,30.24,10.0,North,8.1,-,N/A,,Overcast,350,2013-03-01 04:15:00
10:35 PM,24.6,19.2,80,30.24,10.0,North,11.5,20.7,N/A,,Overcast,350,2013-03-01 04:35:00
10:55 PM,24.6,19.2,80,30.23,10.0,North,9.2,-,N/A,,Overcast,350,2013-03-01 04:55:00
11:15 PM,24.6,18.9,79,30.23,10.0,North,13.8,-,N/A,,Overcast,350,2013-03-01 05:15:00
11:35 PM,24.4,19.0,80,30.23,10.0,North,10.4,-,N/A,,Overcast,350,2013-03-01 05:35:00
11:55 PM,24.4,19.0,80,30.22,10.0,North,11.5,19.6,N/A,,Overcast,350,2013-03-01 05:55:00